Wind_Speed
34 38 34 31 24 30 28 26 24 22 22 23 23 23 22 22 22 22 21 20 20 21 23 22 19 18 17 16 16 16 15 14 16 13 3 1 5 8 9 10 11 13 15
26 43 37 35 25 22 26 23 21 25 26 26 26 27 26 24 23 22 22 18 19 19 19 19 18 17 16 15 16 16 14 13 13 11 7 6 6 4 7 10 8 12 15
21 25 32 38 30 21 21 21 20 19 23 29 29 30 30 30 29 27 27 26 24 22 19 18 19 18 17 13 12 13 13 13 13 13 10 9 7 5 3 4 5 6 9
19 22 22 20 18 16 17 20 19 20 21 22 26 29 30 31 31 30 28 25 23 20 18 17 18 16 12 12 16 13 15 15 14 13 12 11 10 9 6 6 6 6 8
5 7 8 7 8 10 14 17 19 19 19 17 17 20 22 24 26 27 27 23 19 19 17 16 15 14 14 16 15 15 17 15 14 14 13 13 12 11 10 9 8 7 6
8 2 5 4 4 4 8 14 18 18 18 17 18 20 21 22 21 22 23 23 23 20 16 16 15 15 16 16 17 18 16 16 15 15 15 15 13 12 11 11 12 10 9
4 7 9 7 6 12 12 17 19 21 23 21 22 19 19 18 18 18 20 22 22 21 19 18 18 18 17 16 17 17 17 17 16 16 16 16 16 14 15 15 14 13 13
4 2 6 13 16 11 11 17 21 20 22 24 25 24 24 21 20 19 19 21 20 21 21 19 19 18 17 15 14 15 16 16 15 15 15 14 15 15 16 16 15 17 18
2 2 7 9 13 16 17 18 20 22 23 23 23 23 25 25 25 22 20 21 21 21 20 20 20 19 17 15 17 17 16 15 14 14 15 14 12 14 16 17 18 19 21
5 5 7 11 14 17 20 19 18 23 26 27 26 24 25 24 23 24 22 23 23 23 23 23 21 19 20 19 20 17 18 17 14 14 17 18 18 18 17 18 20 20 19
8 7 8 10 15 17 19 21 21 21 23 25 26 27 25 26 26 24 29 27 25 22 22 21 21 21 23 22 23 23 20 16 16 17 18 19 18 19 20 20 19 18 19
11 11 12 11 11 16 20 20 21 21 23 23 23 26 27 27 28 29 29 27 24 25 23 21 21 22 22 23 25 26 24 20 19 18 18 18 18 19 19 20 20 19 20
18 18 17 19 19 18 19 21 21 21 22 23 23 24 26 24 26 27 30 26 22 24 21 22 17 19 17 14 17 21 23 20 18 18 18 17 18 19 19 17 18 18 16
26 25 24 25 24 23 23 23 24 24 23 24 23 24 26 25 27 26 31 25 28 46 44 38 29 22 14 12 16 21 20 20 20 19 16 15 14 15 18 17 17 16 14
34 33 29 26 26 25 25 25 25 25 24 24 26 24 25 30 31 30 30 25 30 40 42 46 30 24 17 16 18 22 18 13 11 8 8 10 10 13 14 13 11 11 10
43 39 34 30 30 28 27 28 26 27 27 24 24 24 25 25 26 25 32 33 28 25 31 29 32 22 19 18 20 17 15 12 10 8 8 8 9 9 9 9 8 8 7
48 46 41 37 34 31 29 29 31 30 29 27 21 21 24 23 26 25 24 22 25 23 27 27 25 18 15 16 16 17 13 10 8 7 11 10 7 7 6 5 4 4 4
45 43 44 40 36 33 29 29 30 31 32 28 21 22 22 21 25 26 25 28 25 22 24 20 20 18 18 17 18 15 11 6 7 8 4 3 2 2 3 5 5 5 6
41 40 40 39 36 32 29 30 31 30 30 29 24 23 22 21 25 20 19 25 25 18 18 17 19 19 18 17 14 11 8 9 7 5 6 4 5 6 6 6 8 8 10
30 27 30 33 32 30 29 30 31 31 29 28 26 24 21 23 26 20 23 24 21 18 19 21 20 19 16 15 13 11 10 11 9 9 7 7 8 8 8 9 10 11 12
23 27 31 32 33 32 31 32 32 31 30 26 25 19 20 22 28 22 22 22 22 22 20 20 20 17 14 12 11 12 12 10 7 6 7 8 8 11 11 11 12 12 13
31 34 36 37 35 35 34 34 32 29 27 25 24 18 18 21 23 24 25 24 23 22 22 20 19 16 15 13 11 10 8 8 6 6 8 9 10 9 8 8 8 9 11
34 35 36 37 36 35 34 32 29 26 26 25 22 20 23 24 26 28 26 25 25 24 21 17 16 16 14 11 10 8 6 5 6 6 6 5 5 6 7 8 10 12 12
37 37 36 35 31 28 29 28 26 30 26 27 24 28 30 28 28 30 29 31 30 26 21 18 15 13 12 10 8 5 4 4 3 3 4 4 6 7 8 9 11 12 13
50 46 42 39 34 29 28 29 30 34 31 28 30 33 34 34 32 35 35 32 28 26 22 18 15 12 8 6 5 5 4 2 1 2 3 5 8 9 11 12 12 12 13
41 50 48 44 37 31 29 35 35 33 36 31 38 38 33 35 38 34 32 30 27 23 20 16 12 9 8 7 5 3 2 2 3 5 7 9 10 11 11 11 11 12 12
Wind_Direction
247 243 237 239 249 252 249 244 248 252 254 252 251 252 254 253 259 269 275 278 275 279 273 271 281 289 292 285 279 280 278 277 283 294 320 334 274 240 260 260 254 246 243
267 255 249 242 247 252 249 252 251 253 254 256 256 256 256 257 259 263 264 276 278 277 275 272 278 288 290 284 278 276 274 273 274 278 266 255 261 251 257 256 267 266 260
248 242 237 238 250 249 256 255 257 262 259 254 255 257 259 259 259 261 267 270 275 276 275 271 280 282 284 282 281 275 273 272 265 264 258 254 248 249 288 287 271 269 268
233 231 230 234 249 261 267 269 267 269 268 260 258 260 261 263 262 262 267 273 267 269 270 270 276 278 274 273 271 267 277 272 264 259 251 235 235 236 251 270 284 292 281
341 242 245 255 288 298 297 293 287 279 267 263 262 263 262 261 264 259 260 260 264 265 268 266 267 269 262 273 265 260 267 264 264 265 257 244 246 250 262 267 283 287 284
23 193 162 158 234 262 285 285 279 278 277 272 263 268 268 261 263 259 256 255 254 252 248 255 260 258 258 266 265 262 257 253 252 253 260 266 271 270 269 278 289 298 299
53 145 146 179 255 257 264 294 291 278 270 264 269 268 271 276 267 256 247 244 244 236 239 253 256 254 256 264 262 262 257 257 258 253 255 264 272 275 283 284 287 287 292
71 127 246 245 248 284 308 295 290 290 275 267 257 260 261 261 259 252 249 247 250 239 238 245 254 253 254 261 252 246 247 254 263 266 268 271 265 261 267 275 276 285 285
293 300 293 290 263 288 299 290 290 292 282 272 270 265 260 253 256 255 249 252 256 250 249 255 262 263 265 260 258 255 253 248 247 261 265 269 269 263 261 263 272 283 289
313 317 294 297 298 301 304 305 293 280 277 284 279 269 264 263 256 251 252 257 256 253 247 252 254 255 265 267 265 263 262 259 252 254 266 266 269 270 264 265 274 280 284
314 320 315 307 301 301 300 302 303 300 291 271 270 271 266 260 254 241 238 238 245 251 249 251 256 258 262 260 267 263 264 264 259 260 263 267 269 271 272 271 270 267 272
273 293 312 306 297 296 299 300 301 300 295 286 269 268 268 264 258 245 227 225 238 243 240 246 254 257 257 261 268 265 258 256 261 261 263 267 267 266 264 266 269 272 276
271 286 301 308 310 305 303 306 308 300 293 290 273 265 264 262 254 250 230 230 232 252 270 250 261 261 261 265 267 253 258 259 259 261 267 268 270 271 270 266 266 266 268
275 280 287 296 298 295 295 304 311 309 298 287 274 260 257 249 250 241 245 236 271 257 257 255 270 257 251 264 267 265 263 265 267 267 269 275 278 282 277 275 273 270 267
273 278 280 281 284 285 288 293 302 306 300 289 280 261 257 255 261 269 244 246 256 248 250 242 232 236 263 267 257 266 262 259 252 262 269 264 273 271 271 272 272 271 269
262 264 268 267 271 271 278 285 292 299 300 294 278 262 256 258 267 270 248 263 257 244 243 229 215 236 244 238 235 243 246 232 225 256 273 278 275 268 263 260 258 258 261
259 259 258 260 264 266 270 280 289 295 296 295 279 257 247 246 250 245 256 252 233 234 217 214 217 238 219 216 228 223 207 201 227 255 280 274 252 249 250 258 264 271 277
259 258 251 253 255 260 267 276 284 289 291 292 276 251 244 245 239 249 251 232 225 218 208 214 233 209 212 217 198 195 198 203 240 254 243 199 255 291 305 306 312 323 326
251 259 247 244 248 256 263 273 278 282 282 282 276 258 244 240 227 239 221 207 215 208 216 209 208 211 203 192 185 190 200 221 215 202 192 233 272 291 297 301 301 302 301
253 244 236 238 248 257 262 267 272 276 278 272 266 263 250 242 219 216 202 203 212 217 208 206 194 186 182 185 186 187 193 190 190 205 223 247 268 272 271 274 278 282 284
255 248 246 246 248 254 259 263 268 271 275 266 259 256 255 243 212 208 199 199 206 203 195 187 175 175 174 179 175 173 179 194 206 225 238 246 260 265 269 275 278 282 285
252 247 247 248 249 253 256 260 262 264 263 253 254 246 227 200 191 184 180 175 178 178 171 169 166 166 169 175 174 179 192 202 210 240 260 269 270 275 284 285 287 295 303
260 254 248 247 250 252 253 253 254 250 248 240 240 214 196 190 182 179 169 166 164 161 159 164 169 165 165 170 170 174 201 233 252 255 260 268 278 290 293 299 307 309 309
265 257 250 246 242 244 243 239 235 229 234 230 225 192 184 180 176 167 165 164 161 157 157 157 160 167 168 172 179 192 209 212 219 238 257 277 295 306 308 315 320 320 320
257 249 240 236 236 241 230 222 219 216 221 216 200 189 181 170 164 165 160 154 154 153 152 162 164 162 159 155 153 161 172 187 239 298 318 325 324 323 327 327 320 316 319
251 229 226 225 228 228 222 212 209 208 202 196 187 177 172 166 156 151 154 153 153 156 159 157 152 148 148 145 141 126 91 26 351 340 334 331 327 328 322 317 318 321 327
Height
1547 1547 1543 1546 1546 1550 1552 1554 1557 1559 1562 1564 1566 1568 1569 1570 1571 1571 1572 1573 1572 1572 1573 1574 1574 1573 1573 1572 1572 1572 1571 1571 1570 1569 1569 1569 1568 1570 1570 1570 1571 1572 1574
1539 1538 1541 1545 1544 1546 1547 1548 1551 1554 1557 1560 1561 1563 1564 1566 1567 1568 1568 1570 1570 1569 1569 1570 1570 1570 1569 1569 1569 1568 1568 1568 1567 1567 1567 1567 1568 1567 1568 1568 1567 1568 1568
1526 1529 1536 1540 1540 1541 1542 1544 1547 1549 1551 1554 1555 1556 1558 1560 1562 1563 1563 1565 1566 1565 1564 1566 1566 1566 1565 1565 1566 1566 1565 1565 1564 1564 1564 1564 1565 1566 1565 1565 1565 1565 1565
1524 1526 1529 1532 1534 1536 1538 1539 1543 1546 1545 1547 1549 1550 1552 1554 1556 1556 1557 1559 1559 1560 1560 1560 1561 1562 1562 1562 1562 1563 1563 1563 1562 1561 1561 1562 1563 1564 1564 1562 1563 1561 1562
1516 1518 1522 1526 1530 1532 1534 1537 1539 1539 1542 1540 1543 1545 1548 1548 1548 1551 1551 1553 1553 1554 1554 1555 1556 1556 1556 1557 1558 1558 1559 1560 1561 1562 1561 1561 1561 1561 1562 1561 1559 1558 1557
1514 1516 1519 1522 1526 1528 1533 1536 1537 1537 1538 1538 1539 1540 1544 1543 1543 1543 1544 1545 1545 1545 1547 1549 1550 1551 1552 1554 1555 1555 1555 1555 1556 1557 1558 1560 1561 1561 1560 1558 1557 1555 1554
1513 1515 1518 1521 1525 1526 1525 1527 1530 1532 1532 1533 1534 1536 1537 1538 1537 1536 1538 1538 1538 1538 1540 1543 1544 1544 1545 1547 1549 1551 1552 1553 1553 1553 1554 1556 1557 1559 1559 1557 1555 1554 1553
1516 1515 1517 1519 1519 1518 1515 1521 1523 1524 1526 1526 1527 1529 1532 1531 1531 1532 1533 1534 1534 1535 1536 1539 1540 1540 1541 1542 1543 1544 1545 1547 1550 1551 1551 1552 1553 1553 1554 1553 1552 1551 1550
1516 1514 1516 1514 1514 1513 1518 1520 1518 1521 1519 1520 1520 1522 1523 1521 1524 1528 1529 1530 1532 1534 1536 1538 1539 1540 1541 1541 1541 1541 1542 1541 1544 1546 1547 1548 1549 1549 1549 1549 1549 1549 1547
1512 1512 1514 1514 1513 1514 1514 1514 1515 1515 1515 1513 1513 1513 1514 1514 1517 1521 1524 1526 1527 1528 1530 1532 1534 1537 1539 1540 1539 1539 1540 1541 1541 1542 1543 1543 1544 1545 1545 1545 1544 1544 1544
1511 1511 1512 1512 1512 1510 1510 1509 1510 1509 1508 1508 1507 1505 1506 1506 1507 1511 1513 1515 1519 1522 1525 1528 1529 1531 1532 1534 1536 1536 1536 1538 1538 1537 1538 1539 1539 1539 1539 1540 1540 1539 1538
1508 1508 1508 1508 1508 1508 1506 1505 1504 1503 1502 1501 1500 1497 1497 1497 1498 1500 1506 1506 1512 1517 1520 1520 1524 1525 1525 1526 1529 1532 1532 1531 1531 1531 1532 1533 1533 1533 1533 1533 1534 1534 1533
1499 1500 1501 1502 1501 1502 1503 1501 1500 1499 1496 1493 1492 1492 1492 1491 1492 1493 1496 1500 1502 1511 1515 1514 1516 1517 1519 1517 1522 1526 1527 1525 1525 1525 1526 1526 1527 1527 1527 1527 1526 1526 1525
1494 1494 1494 1494 1495 1496 1496 1495 1492 1490 1488 1486 1485 1486 1486 1485 1486 1487 1486 1492 1502 1506 1502 1501 1508 1513 1510 1510 1515 1522 1522 1521 1520 1520 1520 1521 1522 1522 1523 1522 1522 1522 1521
1486 1486 1486 1487 1488 1489 1488 1489 1488 1486 1483 1480 1478 1478 1479 1478 1477 1479 1482 1483 1485 1485 1482 1489 1497 1505 1501 1504 1511 1518 1517 1516 1516 1517 1516 1517 1516 1518 1519 1518 1518 1519 1517
1474 1476 1478 1479 1480 1481 1480 1481 1481 1479 1476 1473 1471 1470 1470 1471 1472 1473 1476 1477 1479 1478 1480 1486 1494 1498 1499 1503 1510 1512 1511 1511 1512 1514 1515 1514 1514 1515 1515 1515 1515 1515 1513
1461 1463 1468 1470 1470 1471 1471 1471 1470 1469 1468 1466 1464 1464 1463 1464 1464 1467 1469 1470 1471 1474 1479 1484 1491 1493 1495 1501 1504 1507 1506 1507 1509 1511 1511 1511 1511 1512 1512 1513 1512 1512 1511
1448 1450 1453 1458 1461 1461 1462 1463 1462 1461 1458 1457 1457 1457 1456 1457 1457 1460 1462 1468 1471 1472 1476 1481 1488 1489 1494 1495 1498 1502 1503 1503 1506 1507 1508 1510 1510 1510 1511 1513 1513 1511 1510
1433 1436 1439 1445 1449 1451 1453 1454 1454 1453 1451 1450 1450 1450 1449 1450 1453 1454 1456 1463 1468 1471 1475 1479 1484 1486 1489 1493 1494 1497 1500 1503 1503 1504 1506 1507 1509 1509 1508 1509 1510 1508 1507
1420 1423 1429 1433 1437 1440 1442 1444 1445 1444 1444 1442 1443 1443 1444 1444 1446 1451 1455 1461 1467 1472 1475 1478 1481 1484 1487 1490 1492 1494 1498 1500 1501 1502 1503 1504 1505 1506 1506 1507 1505 1504 1503
1413 1416 1419 1422 1424 1428 1431 1433 1434 1434 1434 1434 1435 1437 1439 1440 1442 1447 1454 1459 1465 1470 1473 1476 1480 1483 1486 1491 1491 1492 1495 1498 1500 1500 1501 1502 1503 1505 1504 1501 1501 1500 1499
1402 1404 1408 1411 1414 1416 1419 1421 1423 1425 1426 1427 1429 1432 1434 1437 1440 1447 1452 1457 1462 1468 1474 1477 1480 1483 1486 1491 1492 1493 1495 1497 1497 1498 1499 1500 1502 1500 1498 1498 1496 1494 1495
1391 1392 1394 1397 1400 1403 1407 1410 1413 1416 1418 1421 1424 1427 1430 1434 1440 1447 1451 1457 1464 1469 1475 1478 1482 1485 1488 1490 1491 1492 1495 1495 1496 1497 1498 1499 1498 1497 1496 1495 1493 1491 1488
1378 1378 1381 1384 1388 1390 1394 1399 1404 1408 1411 1415 1419 1422 1428 1434 1441 1447 1452 1458 1464 1470 1475 1480 1484 1487 1488 1490 1491 1490 1494 1495 1495 1495 1495 1495 1494 1493 1492 1489 1488 1487 1487
1353 1357 1363 1370 1376 1379 1384 1390 1394 1400 1405 1410 1414 1420 1426 1434 1440 1448 1453 1460 1465 1470 1476 1482 1486 1487 1488 1489 1490 1491 1493 1492 1493 1493 1492 1490 1490 1489 1487 1485 1486 1486 1484
1317 1330 1343 1354 1363 1369 1376 1381 1386 1393 1398 1404 1411 1418 1427 1435 1440 1447 1456 1461 1468 1473 1479 1482 1484 1486 1488 1488 1489 1490 1490 1491 1491 1490 1488 1487 1487 1484 1484 1484 1484 1483 1480